Location: Bégole
(43.1574°N, 0.3291°E)
Time: 09:24:05
(UTC+00:00)

NOAA 16 DEB - Pass Details

Date: 01 March 2024
Orbit: 831 x 876 km, 98.7° (Epoch: 12 April)

Event Time Altitude Azimuth Distance (km) Brightness Sun altitude
Rises 19:06:34 0° 163° (SSE) 3,402 ? -15.0°
Reaches altitude 10° 19:08:56 10° 163° (SSE) 2,464 ? -15.5°
Maximum altitude 19:14:24 87° 75° (ENE) 848 ? -16.5°
Drops below altitude 10° 19:19:51 10° 347° (NNW) 2,457 ? -17.5°
Sets 19:22:13 0° 347° (NNW) 3,392 ? -17.9°
